THY141 LTAJ-LTFM

Flight info

Callsign THY141
Flight time N/A
Altitude 36000
Route BOYAT UL605 BALAX UA17 YUCEL UL605 YAVRU UA4 ERSEN
Aircraft A321/M-SDE3FGHIRWY/LB1

Departure

Time 2026-05-01 14:52
Airport Gaziantep Oğuzeli International Airport (LTAJ)

Arrival

Time N/A
Airport İstanbul Airport (LTFM)
Time Latitude Longitude Altitude Speed Heading
2026-05-01 14:29 36.94519 37.47725 2303 ft 0 kts 195°
2026-05-01 14:41 36.94532 37.47729 2306 ft 4 kts 195°
2026-05-01 14:42 36.94557 37.47740 2301 ft 4 kts 210°
2026-05-01 14:42 36.94578 37.47760 2304 ft 4 kts 239°
2026-05-01 14:42 36.94584 37.47787 2300 ft 2 kts 284°
2026-05-01 14:42 36.94583 37.47794 2304 ft 0 kts 284°
2026-05-01 14:44 36.94583 37.47793 2304 ft 1 kts 284°
2026-05-01 14:44 36.94583 37.47790 2300 ft 0 kts 284°
2026-05-01 14:45 36.94585 37.47781 2302 ft 2 kts 284°
2026-05-01 14:45 36.94588 37.47767 2302 ft 3 kts 284°
2026-05-01 14:46 36.94594 37.47737 2293 ft 5 kts 284°
2026-05-01 14:46 36.94615 37.47640 2292 ft 7 kts 284°
2026-05-01 14:46 36.94631 37.47572 2288 ft 9 kts 296°
2026-05-01 14:47 36.94684 37.47536 2292 ft 10 kts 338°
2026-05-01 14:47 36.94717 37.47461 2286 ft 11 kts 285°
2026-05-01 14:47 36.94737 37.47369 2289 ft 12 kts 285°
2026-05-01 14:48 36.94784 37.47156 2287 ft 14 kts 284°
2026-05-01 14:48 36.94808 37.47039 2290 ft 14 kts 284°
2026-05-01 14:48 36.94857 37.46805 2286 ft 14 kts 284°
2026-05-01 14:49 36.94905 37.46576 2288 ft 13 kts 285°
2026-05-01 14:49 36.94951 37.46378 2288 ft 11 kts 285°
2026-05-01 14:50 36.94985 37.46223 2292 ft 11 kts 289°
2026-05-01 14:50 36.95144 37.46261 2277 ft 16 kts 79°
2026-05-01 14:51 36.95119 37.46412 2277 ft 27 kts 108°
2026-05-01 14:51 36.94760 37.48013 2288 ft 156 kts 109°
2026-05-01 14:52 36.94141 37.50763 3365 ft 169 kts 108°
2026-05-01 14:52 36.93808 37.52179 3865 ft 175 kts 114°
2026-05-01 14:52 36.92646 37.55254 4259 ft 218 kts 118°
2026-05-01 14:53 36.91949 37.57064 4395 ft 244 kts 117°
2026-05-01 14:53 36.91200 37.59068 4819 ft 261 kts 117°
2026-05-01 14:53 36.90427 37.61148 5541 ft 266 kts 122°
2026-05-01 14:53 36.89163 37.62779 6250 ft 264 kts 155°
2026-05-01 14:54 36.87388 37.63208 6921 ft 265 kts 188°
2026-05-01 14:54 36.85713 37.62277 7588 ft 270 kts 222°
2026-05-01 14:54 36.84734 37.60282 8287 ft 277 kts 255°
2026-05-01 14:54 36.84803 37.57884 8994 ft 285 kts 288°
2026-05-01 14:55 36.85922 37.55820 9739 ft 293 kts 315°
2026-05-01 14:55 36.87546 37.54290 10276 ft 305 kts 324°
2026-05-01 14:55 36.89393 37.52791 10423 ft 328 kts 324°
2026-05-01 14:55 36.91367 37.51186 10600 ft 347 kts 324°
2026-05-01 14:56 36.93394 37.49485 11104 ft 353 kts 321°
2026-05-01 14:56 36.95305 37.47535 11720 ft 356 kts 315°
2026-05-01 14:56 36.97064 37.45350 12350 ft 357 kts 310°
2026-05-01 14:56 36.98718 37.43019 12989 ft 360 kts 308°
2026-05-01 14:57 37.00344 37.40622 13632 ft 363 kts 307°
2026-05-01 14:57 37.03665 37.35801 14739 ft 369 kts 308°
2026-05-01 14:57 37.05384 37.33404 15309 ft 372 kts 309°
2026-05-01 14:58 37.07137 37.31009 15863 ft 375 kts 310°
2026-05-01 14:58 37.08919 37.28597 16417 ft 377 kts 310°
2026-05-01 14:58 37.10713 37.26177 16977 ft 380 kts 310°
2026-05-01 14:58 37.12516 37.23737 17525 ft 383 kts 309°
2026-05-01 14:59 37.14271 37.21272 18043 ft 385 kts 308°
2026-05-01 14:59 37.16047 37.18689 18512 ft 387 kts 307°
2026-05-01 14:59 37.17791 37.16100 18975 ft 389 kts 307°
2026-05-01 14:59 37.19537 37.13497 19419 ft 392 kts 307°
2026-05-01 15:00 37.23077 37.08251 20353 ft 395 kts 307°
2026-05-01 15:00 37.24844 37.05654 20799 ft 398 kts 307°
2026-05-01 15:00 37.26648 37.03015 21239 ft 400 kts 308°
2026-05-01 15:01 37.28488 37.00374 21697 ft 402 kts 308°
2026-05-01 15:01 37.30350 36.97743 22143 ft 404 kts 308°
2026-05-01 15:01 37.32229 36.95104 22596 ft 406 kts 308°
2026-05-01 15:01 37.34121 36.92447 23023 ft 408 kts 308°
2026-05-01 15:02 37.36012 36.89778 23460 ft 410 kts 308°
2026-05-01 15:02 37.36652 36.88871 23586 ft 411 kts 308°
2026-05-01 15:02 37.39813 36.84373 24175 ft 414 kts 308°
2026-05-01 15:02 37.41724 36.81644 24514 ft 417 kts 308°
2026-05-01 15:03 37.43647 36.78895 24859 ft 419 kts 308°
2026-05-01 15:03 37.45573 36.76139 25198 ft 421 kts 308°
2026-05-01 15:03 37.47509 36.73369 25530 ft 423 kts 308°
2026-05-01 15:03 37.49460 36.70580 25839 ft 426 kts 308°
2026-05-01 15:04 37.51424 36.67772 26152 ft 428 kts 308°
2026-05-01 15:04 37.53407 36.64957 26488 ft 430 kts 308°
2026-05-01 15:04 37.55383 36.62176 26787 ft 432 kts 309°
2026-05-01 15:04 37.57397 36.59351 27093 ft 434 kts 309°
2026-05-01 15:05 37.59422 36.56513 27385 ft 436 kts 309°
2026-05-01 15:05 37.61453 36.53662 27698 ft 438 kts 309°
2026-05-01 15:05 37.63494 36.50782 28014 ft 441 kts 308°
2026-05-01 15:05 37.65536 36.47893 28357 ft 442 kts 308°
2026-05-01 15:06 37.67583 36.44994 28713 ft 443 kts 308°
2026-05-01 15:06 37.69645 36.42071 28946 ft 446 kts 308°
2026-05-01 15:06 37.71715 36.39129 29201 ft 449 kts 308°
2026-05-01 15:06 37.73793 36.36176 29485 ft 451 kts 308°
2026-05-01 15:07 37.75882 36.33207 29736 ft 453 kts 308°
2026-05-01 15:07 37.77976 36.30228 29972 ft 454 kts 308°
2026-05-01 15:07 37.80080 36.27235 30218 ft 455 kts 308°
2026-05-01 15:07 37.82179 36.24251 30528 ft 454 kts 308°
2026-05-01 15:08 37.84268 36.21279 30882 ft 451 kts 308°
2026-05-01 15:08 37.86349 36.18314 31215 ft 450 kts 308°
2026-05-01 15:08 37.88424 36.15356 31536 ft 448 kts 308°
2026-05-01 15:08 37.90493 36.12405 31851 ft 447 kts 308°
2026-05-01 15:09 37.92552 36.09463 32178 ft 446 kts 308°
2026-05-01 15:09 37.94608 36.06523 32494 ft 445 kts 308°
2026-05-01 15:09 37.96658 36.03590 32785 ft 444 kts 307°
2026-05-01 15:09 37.98703 36.00666 33063 ft 443 kts 307°
2026-05-01 15:10 38.00751 35.97739 33369 ft 442 kts 307°
2026-05-01 15:10 38.04795 35.91957 33965 ft 440 kts 307°
2026-05-01 15:10 38.06822 35.89045 34235 ft 439 kts 307°
2026-05-01 15:11 38.08844 35.86136 34467 ft 439 kts 307°
2026-05-01 15:11 38.12870 35.80333 34966 ft 437 kts 307°
2026-05-01 15:11 38.14874 35.77445 35217 ft 435 kts 307°
2026-05-01 15:12 38.16879 35.74553 35465 ft 434 kts 307°
2026-05-01 15:12 38.20861 35.68807 35867 ft 432 kts 307°
2026-05-01 15:12 38.22844 35.65942 35902 ft 430 kts 307°
2026-05-01 15:14 38.32678 35.51674 35884 ft 428 kts 307°
2026-05-01 15:14 38.38551 35.43120 35879 ft 426 kts 306°
2026-05-01 15:15 38.46367 35.31726 35903 ft 427 kts 307°
2026-05-01 15:16 38.54178 35.20251 35916 ft 428 kts 306°
2026-05-01 15:18 38.63738 35.05751 35914 ft 427 kts 306°
2026-05-01 15:19 38.70759 34.95104 35928 ft 427 kts 306°
2026-05-01 15:19 38.76500 34.86374 35941 ft 427 kts 306°
2026-05-01 15:20 38.82223 34.77630 35945 ft 427 kts 305°
2026-05-01 15:21 38.86037 34.71791 35947 ft 427 kts 305°
2026-05-01 15:21 38.89837 34.65963 35926 ft 425 kts 305°
2026-05-01 15:22 38.95541 34.57216 35932 ft 426 kts 305°
2026-05-01 15:22 38.99347 34.51368 35944 ft 427 kts 305°
2026-05-01 15:23 39.03150 34.45491 35970 ft 427 kts 304°
2026-05-01 15:23 39.06929 34.39653 35973 ft 427 kts 304°
2026-05-01 15:24 39.10696 34.33748 35977 ft 424 kts 300°
2026-05-01 15:24 39.13875 34.27420 35973 ft 425 kts 304°
2026-05-01 15:25 39.17677 34.21570 35989 ft 426 kts 304°
2026-05-01 15:25 39.21477 34.15708 35994 ft 426 kts 304°
2026-05-01 15:26 39.25267 34.09837 36014 ft 426 kts 304°
2026-05-01 15:26 39.29063 34.03947 35998 ft 427 kts 304°
2026-05-01 15:27 39.32860 33.98047 35999 ft 428 kts 304°
2026-05-01 15:28 39.38555 33.89230 36011 ft 428 kts 304°
2026-05-01 15:28 39.42379 33.83341 36006 ft 427 kts 304°
2026-05-01 15:29 39.48061 33.74454 36007 ft 427 kts 303°
2026-05-01 15:30 39.55464 33.62461 36019 ft 425 kts 303°
2026-05-01 15:31 39.66746 33.44696 36014 ft 425 kts 304°
2026-05-01 15:32 39.74285 33.32878 36014 ft 425 kts 304°
2026-05-01 15:34 39.85553 33.15113 36047 ft 424 kts 303°